Regional Weather Roundup
Issued by NWS Kansas City/Pleasant Hill, MO

Home | Current Version | Previous Version | Graphics & Text | Print | Product List | Glossary Off
Versions: 1 2 3 4 5 6 7 8 9 10 11 12 13 14 15 16 17 18 19 20 21 22 23 24 25 26 27 28 29 30 31 32 33 34 35 36 37 38 39 40 41 42 43 44 45 46 47 48 49 50

000
ASUS43 KEAX 262204
RWREAX

WEATHER ROUNDUP FOR EASTERN KANSAS AND NORTHWEST MISSOURI
NATIONAL WEATHER SERVICE KANSAS CITY/PLEASANT HILL MO
400 PM CST THU FEB 26 2015

KSZ040-057-103>105-MOZ028-029-037-043-262300-
...KANSAS CITY METROPOLITAN AREA...

CITY           SKY/WX    TMP DP  RH WIND       PRES   REMARKS
K.C. INTL      MOSUNNY   19   1  45 N17G23    30.44R WCI   4
K.C. DOWNTOWN  MOSUNNY   21   0  39 NW9G20    30.46R WCI  11
LEES SUMMIT    SUNNY     21   0  39 N17       30.43R WCI   7
OLATHE - IXD   SUNNY     20  -1  40 NW15G25   30.44R WCI   6
OLATHE - OJC   SUNNY     21  -1  38 N16       30.41R WCI   7
LAWRENCE       SUNNY     23   1  38 N18G28    30.46R WCI   9

$$

MOZ001>008-011>017-020>025-030>033-038>040-044>046-053-054-262300-
...NORTHERN AND CENTRAL MISSOURI...

CITY           SKY/WX    TMP DP  RH WIND       PRES   REMARKS
ST. JOSEPH     SUNNY     18  -1  43 N17G25    30.49R WCI   3
MOSBY            N/A     19   1  45 N17G23    30.45R WCI   4
WARRENSBURG    PTSUNNY   23   3  42 N14G21    30.43R WCI  11
WHITEMAN AFB   SUNNY     21   2  43 N16       30.41R WCI   7
CLINTON        MOSUNNY   27   7  43 N15       30.41S WCI  15
SEDALIA        SUNNY     22   3  44 N14G23    30.42R WCI   9
WARSAW         NOT AVBL
MARSHALL       SUNNY     21   5  49 NW16G23   30.42R WCI   7
CHILLICOTHE      N/A     17   1  49 N9G22     30.46R WCI   6
MOBERLY        SUNNY     21   1  42 NW15      30.39R WCI   8
KIRKSVILLE     SUNNY     15   0  51 N13       30.41R WCI   1

$$

MOZ041-047>049-056>058-063>065-088>090-097-262300-
...EASTERN AND SOUTHERN MISSOURI...

CITY           SKY/WX    TMP DP  RH WIND       PRES   REMARKS
ST. LOUIS INTL PTSUNNY   22  11  62 NW17      30.33R WCI   8
SPIRIT OF STL  PTSUNNY   22  10  60 NW12      30.34R WCI  10
COLUMBIA       CLOUDY    23   6  48 N14G21    30.35R WCI  11
JEFFERSON CITY CLOUDY    24   5  44 N13       30.38R WCI  12
MEXICO         SUNNY     21   9  58 NW14      30.37R WCI   8
HANNIBAL       SUNNY     18  -4  38 N13       30.38R WCI   4
ROLLA          CLOUDY    21   8  57 N13       30.29R WCI   9
OSAGE BEACH    MOSUNNY   25   3  39 N9G18     30.35R WCI  15
SPRINGFIELD    SUNNY     26   6  42 N14G23    30.31R WCI  14
BRANSON        PTSUNNY   28  10  47 N17       30.30R WCI  16
NEVADA         SUNNY     25   3  39 N14G21    30.41R WCI  13
JOPLIN         SUNNY     27   2  34 N15G22    30.38R WCI  15
WEST PLAINS    PTSUNNY   25  12  58 NW16G22   30.28R WCI  12

$$

IAZ060-094-KSZ022-034>040-054-083-096-NEZ052-066-093-262300-
...KANSAS...SOUTHEAST NEBRASKA AND IOWA...

CITY           SKY/WX    TMP DP  RH WIND       PRES   REMARKS
TOPEKA         SUNNY     22   0  38 N14G21    30.47S WCI   9
MANHATTAN      SUNNY     21  -2  36 N9        30.48S WCI  11
EMPORIA        SUNNY     22  -1  36 NW16G25   30.42S WCI   8
CHANUTE        SUNNY     26   2  35 N13G21    30.42R WCI  15
WICHITA        MOSUNNY   26  -5  25 N17       30.42S WCI  13
OMAHA          PTSUNNY   11   2  67 N15       30.53R WCI  -5
LINCOLN        PTSUNNY   13  -1  54 N16       30.52S WCI  -3
FALLS CITY     SUNNY     16  -4  41 N13G24    30.49R WCI   2
LAMONI         MOSUNNY   10  -2  58 N15       30.43R WCI  -7
DES MOINES     LGT SNOW  10   0  63 NW13      30.47R WCI  -5

$$



USA.gov is the U.S. government's official web portal to all federal, state and local government web resources and services.